859  
NZUS99 KSGF 211307  
HRRSGF  
 
HOURLY WEATHER  
NATIONAL WEATHER SERVICE SPRINGFIELD MO  
800 AM CDT SAT APR 21 2018  
   
.....SGF CWA...
 
 
 
CITY SKY/WX TMP DP RH WIND PRES REMARKS  
SPRINGFIELD PTSUNNY 53 29 39 E14G24 30.17F  
JOPLIN CLOUDY 51 37 58 E6 30.18R  
WEST PLAINS CLOUDY 49 28 44 E8 30.26S  
ROLLA CLOUDY 45 26 47 E8 30.30R  
OSAGE BEACH CLOUDY 49 28 44 E6 30.29R  
BRANSON PTSUNNY 48 30 49 E15 30.19F  
   
.....SURROUNDING SGF CWA...
 
 
 
CITY SKY/WX TMP DP RH WIND PRES REMARKS  
CHANUTE CLOUDY 48 42 80 NE6 30.19F  
PARSONS CLOUDY 53 35 50 NE3 30.19S  
COFFEYVILLE CLOUDY 51 39 63 N5 30.17F  
EMPORIA CLOUDY 45 40 82 E9 30.18F  
GROVE OK PTSUNNY 52 34 50 E7 30.15R  
ROGERS AR CLOUDY 51 30 44 E7 30.17R  
SILOAM SPRINGS CLOUDY 51 32 48 E9 30.13F  
HARRISON AR PTSUNNY 47 30 51 SE12 30.19F  
NEAR YELLVILLE CLOUDY 47 34 60 CALM 30.24F  
   
.....KANSAS AND MISSOURI...
 
 
 
CITY SKY/WX TMP DP RH WIND PRES REMARKS  
KANSAS CTY INT CLOUDY 49 26 41 E10 30.25S  
DOWNTOWN KC CLOUDY 51 27 39 E8 30.25R  
COLUMBIA CLOUDY 47 27 45 E10 30.31R  
SEDALIA CLOUDY 49 31 49 E8 30.28S  
ST JOSEPH CLOUDY 50 27 40 E12 30.27S  
ST LOUIS CLOUDY 50 30 46 E12 30.35R  
SPIRIT OF STL CLOUDY 50 32 50 NE3 30.34R  
KIRKSVILLE CLOUDY 47 30 51 NE3 30.36R  
WICHITA LGT RAIN 47 46 97 SE17 30.12R FOG  
TOPEKA CLOUDY 48 41 76 E3 30.24F  
OLATHE CLOUDY 49 28 44 NE9 30.23R  
   
.....TENNESSEE...
 
 
 
CITY SKY/WX TMP DP RH WIND PRES REMARKS  
MEMPHIS FAIR 54 35 48 E8 30.24R  
NASHVILLE FAIR 48 37 65 CALM 30.34R  
   
.....ARKANSAS....
 
 
 
CITY SKY/WX TMP DP RH WIND PRES REMARKS  
FAYETTEVILLE LGT RAIN 49 36 61 CALM 30.15R  
FT SMITH PTSUNNY 52 38 58 E7 30.14R  
LITTLE ROCK PTSUNNY 51 43 74 NE6 30.22R  
   
.....OKLAHOMA....
 
 
 
CITY SKY/WX TMP DP RH WIND PRES REMARKS  
TULSA CLOUDY 55 35 47 N8 30.12R  
PONCA CITY RAIN 48 43 82 E22G28 30.09S  
MCALESTER CLOUDY 56 39 53 SE5 30.06R  
OKLAHOMA CITY RAIN 47 46 97 E13 30.08R FOG  
   
.....IOWA.........
 
 
 
CITY SKY/WX TMP DP RH WIND PRES REMARKS  
DES MOINES CLOUDY 47 29 49 E9 30.36S  
QUAD CITIES FAIR 46 28 49 E6 30.42R  
   
.....ILLINOIS.....
 
 
 
CITY SKY/WX TMP DP RH WIND PRES REMARKS  
QUINCY CLOUDY 47 27 45 E8 30.36R  
CHICAGO CLOUDY 45 20 36 E3 30.44R  
 
 
 
CLICK HERE TO GO TO PREVIOUS BULLETINS.

The Nexlab MO Page
The Nexlab KS Page Main Text Page